Other Surface Observations
Issued by NWS

Home | Current Version | Previous Version | Text Only | Print | Product List | Glossary On
Versions: 1 2 3 4 5 6 7 8 9 10 11 12 13 14 15 16 17 18 19 20 21 22 23 24 25 26 27 28 29 30 31 32 33 34 35 36 37 38 39 40 41 42 43 44 45 46 47 48 49 50
000
SXUS52 KTAE 210519
OSOTAE
OSOTAE
North Florida/South Alabama/Southwest Georgia Weather Roundup
National Weather Service Tallahassee Florida
100 AM EDT TUE APR 21 2015

Note: "fair" indicates few or no clouds below 12,000 feet with no
significant weather and/or obstructions to visibility.

!FLZ017-115-028-034-025-210600
...North Florida...

CITY           SKY/WX    TMP DP  RH WIND       PRES   REMARKS
TALLAHASSEE    MOCLDY    64  62  93 MISG      29.91R FOG
APALACHICOLA   PTCLDY    72  66  81 W6        29.91F
PERRY            N/A     65  65 100 S3        29.93R FOG
CROSS CITY       N/A     65  63  93 CALM      29.93S
JACKSONVILLE   MOCLDY    64  62  93 SW7       29.92R
$$

!FLZ112-006-005-002-011-210600
...Florida Panhandle...

CITY           SKY/WX    TMP DP  RH WIND       PRES   REMARKS
MARIANNA       PTCLDY    67  67 100 W10       29.90R
BONIFAY        FAIR      67  60  78 NW9       29.93R
PANAMA CITY NW FAIR      68  63  84 W8        29.90R
TYNDALL AFB    PTCLDY    72  65  79 W10G21    29.91R
TYND DRONE APT FAIR      72  67  83 W8G14     29.91S
DE FUNIAK SPR  FAIR      65  57  75 NW10      29.94R
EGLIN AFB      CLEAR     66  58  75 N7        29.93R
DESTIN         CLEAR     69  59  70 NW10      29.93R
HURLBURT       CLEAR     67  53  61 N13       29.93R
CRESTVIEW      CLEAR     64  56  75 NW8       29.95R
PENSACOLA      CLEAR     64  55  72 N8        29.95R
$$

!ALZ063-066-210600
...South Alabama...

CITY           SKY/WX    TMP DP  RH WIND       PRES   REMARKS
DOTHAN         CLEAR     64  55  72 NW10      29.95R
OZARK CAIRNS   CLEAR     64  50  61 NW7       29.92R
FT RUCKER HELI CLEAR     62  53  72 NW6       29.91S
RUCKER HELI 3  FAIR      62  53  73 NW7       29.94R
RUCKER HELI 2  NOT AVBL
FLORALA APT    CLEAR     61  54  77 CALM      29.95S
ANDALUSIA      NOT AVBL
TROY           CLEAR     61  50  67 NW8       29.94R
EUFALA         FAIR      63  53  70 CALM      29.91R
MOBILE         PTCLDY    60  51  72 NW3       29.97R
$$

!GAZ120>161-210600
...Southwest and South Central Georgia...

CITY           SKY/WX    TMP DP  RH WIND       PRES   REMARKS
THOMASVILLE    FAIR      64  64 100 SW3       29.90S
BAINBRIDGE     MOCLDY    70  68  94 W5        29.89S
MOODY AFB      MOCLDY    66  64  94 S8        29.89R
VALDOSTA       PTCLDY    65  65 100 CALM      29.90R
MOULTRIE       PTCLDY    68  68 100 SW8       29.90S
BLAKELY        PTCLDY    68  61  77 NW3       29.92R
ALBANY         PTCLDY    67  65  93 W6        29.91R
TIFTON         CLOUDY    66  65  97 SW5       29.89R
FITZGERALD     CLOUDY    67  65  91 SW5       29.91R
CORDELE        FAIR      67  64  92 NW5       29.90R
AMERICUS       FAIR      64  55  72 NW7       29.92R
HOMERVILLE     CLOUDY    68  66  94 SW3       29.91R
$$

!GMZ750-755-770-775-210600
...Coastal and Buoy Obs...

STATION/POSITION TIME  TEMP    WIND        PRES    VSBY  WAVE
                       AIR SEA DIR/SP/G                  HT/PER
                 (UTC) (F)     (DEG/KT/KT) (MB)    (MI)  (FT/S)
KEATON BEACH     0500   73     250/ 12/ 14 1013.2R
CEDAR KEY        0500   73     210/  9/ 13 1014.0R
C TOWER          0500   72     260/ 14/ 15 1013.2S
APALACHICOLA BUO 0450   76 76  250/  8/ 10 1013.6F         3/ 6
PANAMA CITY BUOY 0450   75 76  300/ 14/ 16 1013.9R         3/ 5
MOBILE BUOY      0450   74 74  330/ 12/ 14 1014.3R         3/ 7
ORANGE BCH AL BU 0450   71 74  340/ 16/ 19 1013.1R         3/ 7
$$



USA.gov is the U.S. government's official web portal to all federal, state and local government web resources and services.